Change the Weather History Date:

Wednesday, October 31, 2012

  Actual Average (KCKC) Record (KCKC)
Temperature  
Mean Temperature 36 °F -  
Max Temperature 46 °F 38 °F 60 °F (1999)
Min Temperature 27 °F 27 °F 6 °F (1996)
Degree Days  
Heating Degree Days 29    
Moisture  
Dew Point 20 °F    
Average Humidity 56    
Maximum Humidity 72    
Minimum Humidity 34    
Precipitation  
Precipitation 0.00 in - - ()
Sea Level Pressure  
Sea Level Pressure 29.97 in    
Wind  
Wind Speed 4 mph (WSW)    
Max Wind Speed 14 mph    
Max Gust Speed 26 mph    
Averages and records for this station are not official NWS values.
T = Trace of Precipitation, MM = Missing Value Source: NWS Daily Summary

Daily Weather History Graph

Daily Weather History Graph

Search for Another Location

Airport or City:

Trip Planner

Search our weather history database for the weather conditions in past years. The results will help you decide how hot, cold, wet, or windy it might be!

Date:

Astronomy

Oct. 31, 2012 Rise Set
Actual Time 7:44 AM CDT 5:44 PM CDT
Civil Twilight 7:12 AM CDT 6:16 PM CDT
Nautical Twilight 6:36 AM CDT 6:52 PM CDT
Astronomical Twilight 6:00 AM CDT 7:28 PM CDT
Moon 6:46 PM CDT (10/31) 9:34 AM CDT (10/31)
Length of Visible Light 11h 03m
Length of Day
9h 59m
Full, 97% of the Moon is Illuminated
Oct 31
Full
Nov 6
Last Quarter
Nov 13
New
Nov 20
First Quarter
Nov 28
Full

Hourly Weather History & Observations

Time (CDT) Temp. Windchill Dew Point Humidity Pressure Visibility Wind Dir Wind Speed Gust Speed Precip Events Conditions
12:56 AM 32.0 °F - 19.0 °F 59% 30.07 in - Calm Calm - N/A   Unknown
1:56 AM 30.9 °F 21.7 °F 18.0 °F 59% 30.06 in - NNW 11.5 mph 25.3 mph N/A   Unknown
2:56 AM 30.0 °F 19.5 °F 19.0 °F 64% 30.04 in - NNW 13.8 mph 26.5 mph N/A   Unknown
3:56 AM 28.9 °F 25.2 °F 19.0 °F 67% 30.04 in - Variable 3.5 mph 21.9 mph N/A   Unknown
4:56 AM 28.9 °F - 19.9 °F 69% 30.04 in - Calm Calm - N/A   Unknown
5:56 AM 28.0 °F 20.8 °F 19.0 °F 69% 30.03 in - Variable 6.9 mph - N/A   Unknown
6:56 AM 27.0 °F - 19.0 °F 72% 30.03 in - Calm Calm - N/A   Unknown
7:56 AM 27.0 °F - 19.0 °F 72% 30.04 in - Calm Calm - N/A   Unknown
8:56 AM 28.9 °F - 19.9 °F 69% 30.02 in - Calm Calm - N/A   Unknown
9:56 AM 33.1 °F - 21.9 °F 64% 30.01 in - Calm Calm - N/A   Unknown
10:56 AM 37.0 °F 32.4 °F 24.1 °F 59% 30.00 in - SW 5.8 mph - N/A   Unknown
11:56 AM 37.0 °F 32.4 °F 25.0 °F 62% 29.99 in - SSW 5.8 mph - N/A   Unknown
12:56 PM 37.0 °F 29.3 °F 27.0 °F 67% 29.97 in - SW 11.5 mph - N/A   Unknown
1:56 PM 41.0 °F 34.7 °F 28.9 °F 62% 29.94 in - WSW 10.4 mph - N/A   Unknown
2:56 PM 41.0 °F 35.8 °F 28.0 °F 60% 29.92 in - SSW 8.1 mph - N/A   Unknown
3:56 PM 45.0 °F 41.8 °F 18.0 °F 34% 29.91 in - Variable 5.8 mph - N/A   Unknown
4:56 PM 43.0 °F 41.3 °F 19.0 °F 38% 29.91 in - Variable 3.5 mph - N/A   Unknown
5:56 PM 39.0 °F - 16.0 °F 39% 29.91 in - Calm Calm - N/A   Unknown
6:56 PM 39.9 °F 36.7 °F 21.9 °F 49% 29.92 in - Variable 4.6 mph - N/A   Unknown
7:56 PM 39.0 °F - 18.0 °F 43% 29.92 in - Calm Calm - N/A   Unknown
8:56 PM 39.9 °F 37.8 °F 15.1 °F 36% 29.90 in - SW 3.5 mph - N/A   Unknown
9:56 PM 39.9 °F - 19.0 °F 43% 29.89 in - Calm Calm - N/A   Unknown
10:56 PM 39.9 °F - 16.0 °F 38% 29.89 in - Calm Calm - N/A   Unknown
11:56 PM 39.0 °F 36.8 °F 19.0 °F 45% 29.88 in - Variable 3.5 mph - N/A   Unknown